Location: Si�tamo
(42.1239°N, 0.2807°W)
Time: 03:30:44
(UTC+00:00)

Daily predictions for brighter satellites

Satellite Brightness Start Highest point End
(mag) Time Altitude Azimuth Time Altitude Azimuth Time Altitude Azimuth
Cosmos 1697 Rocket 4.5 02:01:35 27° NE 02:01:35 27° NE 02:04:16 10° NE
Cosmos 1980 Rocket 4.1 02:05:36 25° ENE 02:05:36 25° ENE 02:08:53 10° NE
ADEOS II 3.6 02:22:45 10° NNE 02:25:24 31° NNE 02:25:24 31° NNE
ARIANE 5 R/B 3.9 02:27:59 10° NNE 02:31:22 35° ENE 02:31:22 35° ENE
IDEFIX/ARIANE 42P 3.8 02:32:23 10° NNE 02:36:51 37° E 02:36:51 37° E
NOSS 3-3 (A) 4.4 02:56:41 47° SE 02:57:01 47° ESE 03:03:00 10° NE
NOSS 3-3 (C) 4.4 02:56:50 46° SE 02:57:08 47° ESE 03:03:04 10° NE
Cosmos 44 4.4 02:59:36 38° NE 02:59:36 38° NE 03:02:36 10° NE
SJ 16-02 3.6 02:56:26 10° N 02:59:58 23° ENE 03:03:30 10° ESE
USA 267 3.1 02:53:38 10° NE 03:00:10 74° NW 03:00:27 73° WNW
Cosmos 1238 Rocket 4.5 02:53:55 10° N 03:00:25 57° ENE 03:04:08 23° SSE
Cosmos 2278 3.8 03:02:25 71° NNE 03:02:25 71° NNE 03:07:30 10° NNE
CZ-2D R/B 4.2 02:58:49 10° NNW 03:00:07 15° NNW 03:00:07 15° NNW
Lacrosse 5 2.8 03:08:39 39° N 03:08:39 39° N 03:12:31 10° NE
H-2A R/B 4.0 03:04:33 10° SE 03:08:21 30° ENE 03:12:14 10° N
Resurs 1-4 Rocket 4.3 03:05:59 10° NNW 03:07:01 14° NNW 03:07:01 14° NNW
Cosmos 2369 4.2 03:11:30 47° NNW 03:11:30 47° NNW 03:16:08 10° NNE
Cosmos 972 4.3 03:25:29 79° NNW 03:25:29 79° NNW 03:30:08 10° NNE
ERS-2 4.4 03:28:09 10° SE 03:31:11 25° ENE 03:34:14 10° NNE
Spot 4 Rocket 3.8 03:28:15 10° N 03:33:24 74° WNW 03:33:39 72° W
USA 234 3.4 03:27:33 10° ESE 03:34:03 74° NE 03:40:35 10° NW
MSX 3.7 03:29:57 10° NNE 03:35:46 88° ESE 03:37:58 40° SSW
Timation 1 Rocket 4.2 03:31:55 10° NNW 03:37:50 64° WSW 03:43:45 10° S
X-37B 2.1 03:42:02 37° ENE 03:42:02 37° ENE 03:44:17 10° E
Cosmos 1697 Rocket 3.8 03:43:20 27° NW 03:43:20 27° NW 03:47:49 10° N
BREEZE M DEB (TANK) 3.9 03:30:26 10° WNW 03:47:01 85° NNE 03:51:28 10° ESE
SL-8 R/B 3.7 03:45:53 47° NW 03:47:11 76° NNE 03:51:58 10° ESE
Cosmos 1980 Rocket 2.6 03:47:24 42° WNW 03:47:54 43° WNW 03:53:18 10° NNE
Cosmos 921 Rocket 2.8 03:52:49 65° WNW 03:52:49 65° WNW 03:57:00 10° NNE
Cosmos 2322 Rocket 2.9 03:49:53 14° S 03:54:37 53° ESE 04:00:08 10° NNE
IRIDIUM 114 4.4 03:50:40 10° N 03:55:55 81° E 04:01:08 10° S
Cosmos 2263 Rocket 2.1 03:50:46 10° NNW 03:56:28 89° ENE 04:02:09 10° SSE
Cosmos 1934 Rocket 4.1 03:51:41 10° NNW 03:57:26 46° W 03:59:40 33° SW
Cosmos 1812 2.6 04:01:20 64° WSW 04:01:34 66° W 04:05:24 10° N
Cosmos 1707 Rocket 4.0 03:57:47 10° S 04:02:01 59° E 04:06:18 10° NNE
Cosmos 1500 3.2 03:59:43 10° NNW 04:03:18 57° WNW 04:03:18 57° WNW
SL-16 R/B 2.3 03:59:44 20° SSW 04:03:42 77° ESE 04:09:23 10° NNE
IRIDIUM 103 4.2 03:59:49 10° N 04:05:03 84° W 04:10:16 10° S
CZ-4C R/B 3.4 04:06:18 46° NW 04:06:18 46° NW 04:09:07 10° NNW
ADEOS II 4.0 04:04:25 10° NNW 04:06:20 14° NW 04:06:20 14° NW
Cosmos 1666 3.0 04:05:21 10° N 04:09:09 68° E 04:12:54 10° SSE
Cosmos 1937 Rocket 4.3 04:04:10 10° N 04:09:13 52° ENE 04:14:12 10° SE
ARIANE 5 R/B 3.7 04:07:43 10° NNW 04:11:39 23° WNW 04:11:42 23° WNW
ADEOS 4.5 04:07:18 10° NNE 04:12:22 50° E 04:17:25 10° S
Meteor 1-10 Rocket 4.2 04:09:30 17° SSW 04:14:01 67° WNW 04:19:53 10° N
Cosmos 2227 4.1 04:09:15 10° NNW 04:14:49 61° WSW 04:20:19 10° S
IDEFIX/ARIANE 42P 3.5 04:12:16 10° N 04:16:42 28° WNW 04:17:39 27° W
Cosmos 841 Rocket 4.4 04:11:52 10° S 04:16:52 50° ESE 04:21:57 10° NNE
Cosmos 2228 Rocket 3.8 04:17:08 32° W 04:17:23 32° WNW 04:21:23 10° N
Cosmos 1153 Rocket 4.4 04:13:34 10° N 04:19:57 78° W 04:26:15 10° S
CZ-2C R/B 2.4 04:15:56 10° N 04:21:04 75° WNW 04:26:15 10° SSW
Cosmos 1733 Rocket 4.0 04:16:58 10° N 04:21:13 50° E 04:25:25 10° SSE
Cosmos 44 Rocket 4.2 04:17:03 10° S 04:21:31 45° ESE 04:26:06 10° NE
IRIDIUM 106 4.3 04:18:13 10° N 04:23:20 57° W 04:28:26 10° SSW
SL-4 R/B 2.3 04:21:29 27° SW 04:23:54 79° SE 04:28:42 10° ENE
Cosmos 1605 Rocket 4.3 04:18:14 10° NNW 04:24:17 46° W 04:30:19 10° SSW
Cosmos 1763 Rocket 3.5 04:21:19 16° SSW 04:25:33 70° WNW 04:30:53 10° NNE
Cosmos 1869 Rocket 3.9 04:24:01 10° NNW 04:28:05 40° W 04:32:06 10° SSW
Meteor 1-5 Rocket 4.3 04:23:13 10° NNW 04:28:17 46° W 04:33:26 10° SSW
FALCON 9 DEB 3.0 04:30:09 32° WSW 04:31:37 82° NW 04:35:04 10° NE
Meteor 1-4 Rocket 3.2 04:33:51 28° WSW 04:34:38 32° WNW 04:37:49 10° N
CZ-2C R/B 4.2 04:32:46 10° NNW 04:35:30 19° WNW 04:35:35 19° WNW
Cosmos 1862 Rocket 3.9 04:31:49 10° S 04:36:10 68° E 04:40:31 10° NNE
Cosmos 1570 Rocket 4.2 04:32:49 10° SSW 04:38:06 77° ESE 04:43:28 10° NNE
SJ 16-02 2.0 04:34:39 10° NW 04:38:35 33° W 04:42:30 10° SSW
USA 276 4.3 04:36:45 10° NW 04:39:12 21° N 04:41:45 10° ENE
SJ-6F 4.3 04:35:25 10° N 04:39:32 79° WNW 04:43:36 10° SSW
PSLV R/B 4.0 04:36:40 10° N 04:40:35 38° WNW 04:43:46 14° SW
NOSS 3-4 (A) 4.2 04:33:36 10° NNW 04:40:39 70° NE 04:48:27 10° SE
NOSS 3-4 (C) 4.2 04:33:43 10° NNW 04:40:46 70° NE 04:48:33 10° SE
BREEZE-M DEB (TANK) 2.8 04:35:46 18° WSW 04:41:22 85° NNW 04:44:20 10° ENE
USA 267 4.4 04:36:57 10° NE 04:42:33 32° NNW 04:47:47 12° WNW
BREEZE-M DEB (TANK) 4.2 04:40:44 17° WNW 04:42:57 41° N 04:50:35 10° ENE
Cosmos 2333 Rocket 4.3 04:39:08 10° SSE 04:43:58 28° ESE 04:48:49 10° NE
H-2A R/B 3.0 04:40:38 10° SSW 04:44:17 26° W 04:48:00 10° NW
ERBS 3.8 04:43:59 18° WNW 04:45:25 23° NNW 04:48:12 10° NNE
PAYLOAD A 4.4 04:41:40 10° N 04:45:57 36° WNW 04:50:07 11° SW
Cosmos 1743 3.7 04:44:03 10° N 04:47:46 51° E 04:51:29 10° SSE
Cosmos 990 Rocket 4.3 04:45:11 10° NNW 04:50:05 43° WSW 04:54:59 10° S
Lacrosse 5 3.9 04:48:26 10° NW 04:51:47 17° NNW 04:55:08 10° NNE
Cosmos 540 Rocket 3.4 04:47:43 10° SSW 04:52:52 78° WNW 04:58:04 10° NNE
CZ-4B R/B 1.4 04:52:12 10° S 04:55:14 48° W 04:58:22 10° NNW
DEBRIS 3.5 04:55:54 15° W 04:58:06 43° SSW 05:04:39 10° SE
Cosmos 2100 Rocket 4.1 04:54:34 10° NNW 05:00:50 60° W 05:07:03 10° S
ALOS 2.2 04:58:52 10° N 05:03:32 70° WNW 05:08:09 10° SSW
CZ-4B R/B 3.2 05:01:00 10° NNE 05:04:38 61° ESE 05:08:09 10° S
ATLAS 2AS CENTAUR R/B 3.0 04:57:11 10° NW 05:04:41 81° NE 05:11:31 10° SE
ERS-2 3.4 05:01:51 10° SSW 05:04:41 21° W 05:07:32 10° NW
Okean 1 3.6 05:01:01 10° S 05:05:02 75° E 05:09:06 10° NNE
Cosmos 1802 Rocket 4.0 04:59:43 10° NNW 05:05:55 73° W 05:12:08 10° S
CZ-4B R/B 4.1 05:01:56 10° N 05:06:16 72° WNW 05:10:42 10° SSW
Meteor 1-11 Rocket 4.3 05:01:23 10° NNW 05:06:33 35° W 05:11:34 10° SSW
ADEOS Rocket 3.5 05:00:57 10° S 05:07:30 45° W 05:13:28 10° NNW
Cosmos 1689 Rocket 2.0 05:05:13 10° SSE 05:08:10 90° W 05:11:09 10° NNW
COSMO-SKYMED 1 2.9 05:06:22 10° SSE 05:10:41 75° ENE 05:15:02 10° N
Cosmos 1484 Rocket 3.2 05:09:12 10° N 05:13:02 46° WNW 05:16:51 10° SW
Meteor PRIRODA 3.9 05:11:57 10° NNE 05:15:38 72° ESE 05:19:15 10° S
Cosmos 1459 Rocket 4.2 05:10:43 10° NNW 05:16:31 48° W 05:22:15 10° SSW
USA 234 4.0 05:11:43 10° S 05:17:23 32° SW 05:23:07 10° WNW
X-37B 0.7 05:14:43 10° WNW 05:17:52 60° SSW 05:21:00 10° ESE
Cosmos 1536 3.9 05:16:16 10° NW 05:19:34 24° W 05:22:51 10° SW
METEOR-M 4.2 05:15:13 10° N 05:20:31 63° WNW 05:25:47 10° SSW
Cosmos 2123 Rocket 4.0 05:15:09 10° SSW 05:21:22 72° W 05:27:41 10° N
Cosmos 2360 Rocket 2.3 05:16:07 10° SW 05:21:41 58° WNW 05:27:18 10° NNE
